CAPE
0 0 0 0 0 0 188 1 12 525 276 232 167 60 0 0 0 0 0 0 0 0 0 0 0 0 0 0 0 0 0 0
2 2 0 0 0 0 18 2 423 395 274 187 87 6 0 0 0 0 0 0 0 0 0 0 0 0 0 0 0 0 0 0
1 1 0 0 0 0 0 1 398 332 245 133 46 0 0 0 0 0 0 0 0 0 0 0 0 0 0 0 0 0 0 0
1 1 0 0 4 0 0 0 53 165 146 82 13 0 0 0 0 0 0 0 0 0 0 0 0 0 0 0 0 0 0 0
2 2 1 3 1 4 3 1 1 61 90 50 8 0 0 0 0 0 0 0 0 0 0 0 0 0 0 0 0 0 0 0
1 2 3 2 1 0 3 35 38 47 54 27 0 0 0 0 0 0 0 0 0 0 0 0 0 0 0 0 0 0 0 0
1 1 1 0 3 0 0 0 7 5 30 35 1 0 0 0 0 0 0 0 0 0 0 0 0 0 0 0 0 0 0 0
2 1 1 0 0 0 0 0 0 3 13 0 0 0 0 0 0 0 0 0 0 0 0 0 0 0 0 0 0 0 0 0
1 1 1 0 0 0 0 1 0 4 1 0 0 0 0 0 0 0 0 0 0 0 0 0 0 0 0 0 0 0 0 0
2 3 2 0 0 0 0 0 0 1 5 5 1 0 0 0 0 0 0 0 0 0 0 0 0 0 0 0 0 0 0 0
1 1 2 1 0 0 0 0 15 20 24 7 3 0 0 0 0 0 0 0 0 0 0 0 0 0 0 0 0 0 0 0
1 1 1 0 0 0 0 0 42 52 32 11 2 0 0 0 0 0 0 0 0 0 0 0 0 0 0 0 0 0 0 0
1 0 0 0 0 0 2 7 14 38 66 76 73 50 42 17 41 45 15 4 0 0 0 0 0 0 0 0 0 0 0 0
1 0 0 0 0 0 0 0 0 0 5 26 45 52 68 95 56 55 25 1 0 0 0 0 0 0 0 0 0 0 0 0
0 0 0 0 0 0 0 0 0 0 0 2 5 25 49 32 80 37 26 3 6 0 0 0 0 0 0 0 0 0 0 0
0 0 0 0 0 0 0 0 0 0 0 0 0 0 0 21 36 60 54 18 9 0 0 0 0 0 0 0 0 0 0 0
0 0 0 0 0 0 0 0 0 0 0 0 0 0 0 0 31 21 20 9 22 2 0 0 0 0 0 0 0 0 0 0
0 0 0 0 0 0 0 0 0 0 0 0 0 0 0 0 0 12 24 20 9 2 0 0 0 0 0 0 0 0 0 0
0 0 0 0 0 0 0 0 0 0 0 0 0 0 0 0 0 1 6 29 19 8 0 0 0 0 0 0 0 0 0 0
0 0 0 0 0 0 0 0 0 0 0 0 0 0 0 0 6 1 0 0 2 5 0 0 0 0 0 0 0 0 0 0
CIN
0 0 0 0 0 0 0 -1 -73 -2 -46 -19 -6 -22 0 0 0 0 0 0 0 0 0 0 0 0 0 0 0 0 0 0
0 0 0 0 0 0 -2 0 0 -1 -19 -8 -14 -30 0 0 0 0 0 0 0 0 0 0 0 0 0 0 0 0 0 0
0 0 0 0 0 0 0 -10 0 0 -3 -21 -42 0 0 0 0 0 0 0 0 0 0 0 0 0 0 0 0 0 0 0
0 0 0 0 0 0 0 0 -13 -33 -33 -46 -167 0 0 0 0 0 0 0 0 0 0 0 0 0 0 0 0 0 0 0
0 0 -1 0 0 0 0 0 -6 -43 -89 -111 -232 0 0 0 0 0 0 0 0 0 0 0 0 0 0 0 0 0 0 0
0 0 0 -1 0 0 0 0 -3 -41 -56 -119 -27 0 0 0 0 0 0 0 0 0 0 0 0 0 0 0 0 0 0 0
0 0 0 0 0 0 0 0 -11 -18 -32 -77 -96 0 0 0 0 0 0 0 0 0 0 0 0 0 0 0 0 0 0 0
0 0 0 0 0 0 0 0 0 -21 -68 0 0 0 0 0 0 0 0 0 0 0 0 0 0 0 0 0 0 0 0 0
0 0 0 0 0 0 0 -33 -5 -85 -32 0 0 0 0 0 0 0 0 0 0 0 0 0 0 0 0 0 0 0 0 0
0 0 0 0 0 0 0 0 -10 -50 -113 -149 -130 0 0 0 0 0 0 0 0 0 0 0 0 0 0 0 0 0 0 0
0 0 0 0 0 0 0 0 -85 -89 -107 -115 -118 0 0 0 0 0 0 0 0 0 0 0 0 0 0 0 0 0 0 0
0 0 0 0 0 0 0 -48 -55 -59 -74 -78 -101 0 0 0 0 0 0 0 0 0 0 0 0 0 0 0 0 0 0 0
0 0 0 0 0 0 -13 -25 -51 -65 -65 -60 -69 -95 -105 -104 -104 -119 -181 -217 0 0 0 0 0 0 0 0 0 0 0 0
0 0 0 0 0 0 0 0 0 -42 -89 -98 -98 -79 -97 -83 -82 -91 -154 -130 0 0 0 0 0 0 0 0 0 0 0 0
0 0 0 0 0 0 0 0 0 0 0 -92 -117 -95 -81 -68 -48 -85 -110 -154 -150 0 0 0 0 0 0 0 0 0 0 0
0 0 0 0 0 0 0 0 0 0 0 0 0 0 0 -102 -95 -71 -98 -102 -127 0 0 0 0 0 0 0 0 0 0 0
0 0 0 0 0 0 0 0 0 0 0 0 0 0 0 0 -113 -94 -101 -117 -107 -116 -7 0 0 0 0 0 0 0 0 0
0 0 0 0 0 0 0 0 0 0 0 0 0 0 0 0 0 -123 -116 -118 -116 -108 -34 0 0 0 0 0 0 0 0 0
0 0 0 0 0 0 0 0 0 0 0 0 0 0 0 0 0 -108 -170 -130 -117 -118 0 0 0 0 0 0 0 0 0 0
0 0 0 0 0 0 0 0 0 0 0 0 0 0 0 0 -169 -152 0 -1 -128 -109 0 0 0 0 0 0 0 0 0 0
Wind_Speed
4 4 3 17 28 24 25 29 20 23 20 17 14 12 13 13 13 14 13 13 15 17 17 17 16 14 15 16 17 16 15 14
6 4 10 19 26 28 24 25 29 23 20 17 15 13 13 13 13 13 13 14 14 14 15 16 16 15 14 16 16 12 14 13
7 7 9 10 11 12 11 32 26 21 18 18 15 12 12 12 12 12 13 14 14 13 16 16 15 15 13 14 13 12 12 12
8 6 8 10 12 6 15 14 25 17 17 17 14 12 11 10 10 10 12 13 9 13 15 14 12 10 12 11 10 8 10 11
8 7 8 11 13 16 8 10 14 22 16 16 15 12 10 10 8 9 9 8 5 9 12 12 10 10 10 9 8 8 8 9
7 6 5 8 12 18 28 22 24 21 15 15 15 12 10 9 12 10 10 6 7 8 9 10 10 8 6 5 5 7 8 10
5 4 2 5 9 17 22 32 27 13 17 19 17 13 11 9 9 7 6 5 8 6 8 7 7 4 4 4 5 6 7 8
4 5 6 8 9 11 9 17 15 13 19 16 17 13 11 12 11 9 7 6 7 7 7 8 5 6 6 6 6 6 6 7
5 7 8 14 11 8 13 14 13 13 15 14 14 14 13 13 9 7 5 4 4 5 5 5 8 9 8 7 6 6 7 8
7 9 9 12 7 8 10 12 13 13 13 13 13 13 11 9 9 7 2 1 1 3 4 6 11 11 9 8 7 6 6 6
10 8 12 9 8 9 11 13 10 11 12 13 12 11 9 7 5 4 3 5 3 4 12 12 14 14 13 13 9 6 6 6
13 12 11 7 8 11 10 9 9 10 12 12 11 10 10 7 6 8 10 6 10 19 17 18 18 13 15 18 17 17 13 8
17 20 17 12 13 14 9 11 11 12 10 11 10 9 8 8 13 16 25 22 24 20 20 18 17 14 17 22 23 19 15 14
19 20 22 26 21 18 13 12 14 13 14 14 12 12 14 17 23 31 31 28 22 15 11 16 15 12 19 21 24 23 18 16
20 23 25 27 27 30 33 35 36 38 37 36 34 30 33 36 36 36 34 21 15 8 8 11 15 17 18 20 22 22 22 20
18 21 23 24 26 27 28 32 36 38 38 39 37 36 37 36 36 36 25 9 17 12 9 13 18 17 21 22 23 23 25 26
20 21 22 23 22 22 24 26 33 34 35 38 39 39 39 36 34 33 33 15 17 22 11 9 9 16 17 19 21 22 23 24
19 21 22 23 22 22 23 25 23 28 34 37 40 41 40 38 35 29 14 12 13 11 10 10 11 13 16 15 17 20 19 20
21 21 24 24 23 23 23 22 19 19 22 31 35 34 35 36 40 32 25 21 13 14 14 12 11 13 13 14 16 16 20 18
21 22 22 23 23 24 23 22 18 19 19 24 29 27 26 24 31 38 32 30 17 20 20 20 16 15 15 15 17 18 16 16
Wind_Direction
88 87 315 306 310 340 212 200 201 191 166 171 161 159 133 121 111 103 98 93 84 77 81 88 83 75 70 63 60 53 48 44
317 332 342 317 305 299 244 205 191 174 170 170 165 158 134 123 113 106 100 95 84 75 76 85 84 77 68 67 62 46 47 43
356 349 357 37 19 350 211 207 175 174 163 162 158 154 137 125 117 110 102 96 87 77 77 83 86 81 68 64 53 47 44 43
357 21 62 71 70 60 206 216 210 183 164 166 169 162 147 133 119 108 101 96 84 73 70 73 76 68 64 54 44 30 34 40
18 32 70 91 95 103 132 161 168 204 178 180 168 174 151 136 125 109 100 91 76 64 59 58 69 68 63 52 35 32 31 32
24 49 82 85 110 118 131 132 135 142 169 160 155 165 163 158 123 117 101 84 71 59 47 52 58 59 48 28 15 21 31 38
36 44 97 113 119 130 131 140 136 156 160 151 144 159 156 146 134 128 105 85 60 54 50 41 40 12 322 335 342 8 23 22
59 101 119 133 138 140 182 145 203 166 145 156 151 158 166 143 137 120 107 76 65 59 42 39 343 292 304 309 328 345 358 6
85 121 128 137 146 157 212 209 199 174 165 169 179 157 153 146 146 137 110 70 64 35 16 348 288 290 306 314 332 337 357 14
81 123 130 142 170 191 202 213 211 187 183 185 177 162 178 157 150 144 122 318 15 14 355 320 281 290 305 319 333 4 14 31
106 119 136 158 193 217 216 229 208 195 197 203 191 199 190 180 179 222 251 263 274 307 276 281 277 285 292 292 316 356 19 13
101 126 134 192 203 216 223 209 186 177 177 183 205 207 207 209 237 251 257 262 262 256 268 272 277 296 294 289 296 303 319 339
109 135 134 138 143 155 179 187 202 207 206 210 213 190 197 227 252 255 241 246 249 262 270 282 290 299 297 289 294 306 312 321
115 122 132 143 138 145 146 162 220 219 227 233 237 235 246 246 243 228 229 243 261 276 288 295 297 301 298 304 304 308 308 306
123 132 136 140 145 151 160 176 190 187 191 195 214 223 218 210 208 216 236 269 279 279 284 294 299 297 298 304 310 308 319 320
128 133 138 139 142 144 151 159 170 181 193 211 219 222 214 207 209 216 263 190 185 185 282 291 295 297 299 301 307 312 313 318
143 143 145 148 145 146 151 159 175 186 195 201 206 215 211 211 207 207 209 183 193 198 202 222 278 298 299 308 313 309 314 306
152 154 157 156 154 156 159 166 168 179 193 200 206 207 214 216 214 205 204 210 211 224 234 259 274 287 296 298 305 314 313 311
163 162 167 168 168 169 171 173 172 176 180 189 196 200 207 216 231 265 209 210 226 277 280 270 276 281 287 294 302 304 314 313
171 172 173 172 175 178 177 176 176 178 180 186 196 200 205 212 271 264 269 275 275 285 289 292 296 296 295 301 303 308 308 308